Starlink 30912

operational
NORAD ID: 58422 Int'l Des: 2023-180 Owner: SPXS Country: US Constellation: starlink
LEOCIRCULAR

Starlink 30912について

説明を読み込み中...

リアルタイム位置

3D地球を読み込み中...

次回通過

高度履歴

Altitude vs Time

uPlot chart will show altitude changes over time

軌道要素

1 58422U 23180W 25346.24129748 -.00003138 00000-0 -10457-3 0 9999
2 58422 43.0004 44.1579 0002726 285.0509 75.0041 15.27560923115925
Epoch: Dec 12, 2025 • Age: 20 hours

現在のステータス

高度 483.5 km
速度 7.63 km/s
衛星直下点 16.06°N, 100.15°E
打ち上げ日 Nov 22, 2023
運用期間 2 years
タイプ internet

技術仕様

分類 Payload
質量 730.00 kg
乾燥質量 700.00 kg
総質量 730.00 kg
長さ 0.30 m
直径 4.10 m
スパン 29.00 m
形状 Box + pan
製造者 SPXS
バスタイプ Starlink V2M
フェーズステータス In Orbit
所有者/国 SPXS/US

大規模コンステレーション

Loading constellations...